Regional Weather Roundup
Issued by NWS

Current Version | Previous Version | Text Only | Print | Product List | Glossary On
Versions: 1 2 3 4 5 6 7 8 9 10 11 12 13 14 15 16 17 18 19 20 21 22 23 24 25 26 27 28 29 30 31 32 33 34 35 36 37 38 39 40 41 42 43 44 45 46 47 48 49 50
000
ASUS44 KOUN 062010
RWROK

WEATHER ROUNDUP FOR OKLAHOMA
NATIONAL WEATHER SERVICE NORMAN OK
200 PM CST FRI MAR 06 2015

NOTE: "FAIR" INDICATES FEW OR NO CLOUDS BELOW 12,000 FEET WITH NO
      SIGNIFICANT WEATHER AND/OR OBSTRUCTIONS TO VISIBILITY.

OKZ001>007-009>012-014-015-017-062100-
NORTHWEST OKLAHOMA AND THE PANHANDLE

CITY           SKY/WX    TMP DP  RH WIND       PRES   REMARKS
GAGE           SUNNY     61  24  24 SW12      30.31
GUYMON         SUNNY     59  24  26 E6        30.29
ENID/WOODRING  SUNNY     57  32  38 S16G25    30.35
$$

OKZ016-021>023-033>039-044-045-062100-
SOUTHWEST OKLAHOMA

CITY           SKY/WX    TMP DP  RH WIND       PRES   REMARKS
LAWTON/REGL    SUNNY     53  28  38 SW13G18   30.43
LAWTON/FT SILL SUNNY     54  29  38 SW17G24   30.41F
FREDERICK      MOSUNNY   55  27  33 SW13G28   30.40
CLINTON        SUNNY     53  31  42 S21       30.38
HOBART         SUNNY     53  30  41 SW12G22   30.40
ALTUS AFB      SUNNY     55  29  36 S14G22    30.40F
$$

OKZ018>020-024>031-062100-
CENTRAL OKLAHOMA

CITY           SKY/WX    TMP DP  RH WIND       PRES   REMARKS
OKLAHOMA CITY  SUNNY     55  24  30 SW17G24   30.41
OKC/WILEY POST SUNNY     56  28  34 SW16G23   30.40
OKC/TINKER AFB SUNNY     53  27  36 SW15G22   30.39F
STILLWATER     SUNNY     58  26  29 SW18      30.38F
GUTHRIE        SUNNY     55  26  32 SW10      30.39
$$

OKZ008-013-054>072-062100-
NORTHEAST OKLAHOMA

CITY           SKY/WX    TMP DP  RH WIND       PRES   REMARKS
TULSA          SUNNY     55  26  32 SW9       30.39
TULSA/JONES    SUNNY     55  25  31 SW14      30.41
PONCA CITY     SUNNY     57  28  33 SW13G24   30.36
BARTLESVILLE   SUNNY     58  27  30 SW14G21   30.38
MUSKOGEE       SUNNY     51  26  37 S9        30.46
$$

OKZ032-040>043-046>053-073>077-062100-
SOUTH CENTRAL/SOUTHEAST OKLAHOMA

CITY           SKY/WX    TMP DP  RH WIND       PRES   REMARKS
ARDMORE/DWNTWN SUNNY     52  27  37 SW8       30.47F
MCALESTER      SUNNY     50  27  40 SW15      30.47
$$




USA.gov is the U.S. government's official web portal to all federal, state and local government web resources and services.